Regional Weather Roundup
Issued by NWS Charleston, SC

Current Version | Previous Version | Graphics & Text | Print | Product List | Glossary Off
Versions: 1 2 3 4 5 6 7 8 9 10 11 12 13 14 15 16 17 18 19 20 21 22 23 24 25 26 27 28 29 30 31 32 33 34 35 36 37 38 39 40 41 42 43 44 45 46 47 48 49 50

000
ASUS42 KCHS 090227
RWRCHS

REGIONAL WEATHER ROUNDUP
NATIONAL WEATHER SERVICE CHARLESTON SC
900 PM EST MON FEB 08 2016

NOTE: "FAIR" INDICATES FEW OR NO CLOUDS BELOW 12,000 FEET WITH NO
SIGNIFICANT WEATHER AND/OR OBSTRUCTIONS TO VISIBILITY.

NOT ALL STATIONS ARE QUALITY CONTROLLED BY THE NATIONAL
WEATHER SERVICE. USE DATA WITH CAUTION...ESPECIALLY
DEWPOINT OBSERVATIONS.

NOTICE: OBSERVATIONS FOR THE SAVANNAH-HILTON HEAD INTERNATIONAL AIRPORT
/KSAV/ HAVE BEEN TEMPORARILY REMOVED DUE TO AN ERRONEOUS TEMPERATURE
SENSOR. THE OBSERVATION WILL BE REINTRODUCED ONCE REPAIRS ARE COMPLETE.

SCZ027-030-031-034>040-042>050-090300-
...SOUTHEAST SOUTH CAROLINA...

CITY           SKY/WX    TMP DP  RH WIND       PRES   REMARKS
N CHARLESTON   LGT RAIN  47  41  80 VRB7      29.75R
WATERFRONT PRK   N/A     48  44  86 W5        29.60F
MOUNT PLEASANT CLOUDY    46  43  87 W8G16     29.76R
JOHNS ISLAND   LGT RAIN  46  45  93 NW5G12    29.73F
PINOPOLIS        N/A     46  43  87 SW7       29.63F
MONCKS CORNER  CLOUDY    43  37  81 CALM      29.72F
SUMMERVILLE    CLOUDY    45  43  93 S3        29.73F
BEAUFORT MCAS  LGT RAIN  47  42  83 SW6       29.74F
BEAUFORT ARPT  CLOUDY    45  43  93 SW6       29.74F
HILTON HEAD IS CLOUDY    46  43  87 W5        29.76F
WALTERBORO     CLOUDY    46  45  93 CALM      29.73F
ALLENDALE      FAIR      43  43 100 CALM      29.73F

...SOUTHERN MIDLANDS AND PEE DEE...

CITY           SKY/WX    TMP DP  RH WIND       PRES   REMARKS
GEORGETOWN     NOT AVBL
KINGSTREE      NOT AVBL
ORANGEBURG     CLOUDY    44  41  89 CALM      29.72F
BARNWELL       FAIR      41  41 100 CALM      29.74S
AIKEN          FAIR      41  30  65 W8        29.76R
MANNING        MOCLDY    45  41  87 CALM      29.72S
COLUMBIA       CLEAR     39  35  86 CALM      29.71R
SUMTER         PTCLDY    42  37  85 W8        29.68F
FLORENCE       PTCLDY    42  40  92 W5        29.70F
MYRTLE BEACH   MOCLDY    46  37  71 CALM      29.75F
N MYRTLE BEACH LGT RAIN  46  42  86 SW5       29.72F

$$

GAZ063-065-086>088-099>101-113>116-118-119-134>141-150-090300-
...SOUTHEAST GEORGIA...

CITY           SKY/WX    TMP DP  RH WIND       PRES   REMARKS
SAVANNAH ARPT  CLOUDY    46  42  86 SW5       29.77F
HUNTER AAF     CLOUDY    45  45  99 NW5       29.73F
FORT STEWART   CLOUDY    46  43  91 SW1       29.76R
STATESBORO     PTCLDY    48  34  59 CALM      29.77R
SYLVANIA       CLEAR     43  42  98 W3        29.76S
CLAXTON        FAIR      45  45 100 CALM      29.79R

...CSRA...CENTRAL AND FAR SOUTHEAST GEORGIA...

CITY           SKY/WX    TMP DP  RH WIND       PRES   REMARKS
THOMSON        CLEAR     47  26  45 NW10G21   29.80R
AUGUSTA-BUSH   CLEAR     39  33  79 W6        29.75R WCI  35
AUGUSTA-DANIEL CLEAR     46  29  51 W8        29.75R
SWAINSBORO     FAIR      41  34  75 W3        29.78R
VIDALIA        CLEAR     41  37  87 SW3       29.79R
EASTMAN        FAIR      47  27  45 NW7       29.83R
HAZLEHURST     FAIR      43  43 100 CALM      29.79R
ALMA           CLOUDY    47  43  86 W5        29.80R
WAYCROSS       CLOUDY    50  48  92 W6        29.81R
JESUP          CLOUDY    48  46  93 CALM      29.80R
BAXLEY         CLOUDY    46  46 100 CALM      29.79R
BRUNSWICK      CLOUDY    46  45  93 SW3       29.80S
SAINT SIMONS   LGT RAIN  47  46  97 CALM      29.79S

$$

SCZ027-028-034-036>038-045-046-048>050-GAZ119-141-090300-
...LAKE AND SUPPLEMENTAL COASTAL OBSERVATIONS...

STATION/POSITION TIME  TEMP    WIND        PRES    WAVE   SWELL
                       AIR SEA DIR/SP/G            HT/PER HT/PER/DIR
                 (UTC) (F)     (DEG/KT/KT) (MB)    (FT/S) (FT/S/D)
WINYAH BAY       0100   47     280/ 10     1007.0
LAKE MURRAY      0100   47     260/  8/ 12 1005.4F
ACE BASIN NERRS  0145   46     290/  1     1007.0F
FORT PULASKI     0200   48 53  290/ 10/ 12 1007.6F
SAPELO ISLAND    0200   48     260/  5     1008.0F

$$

ANZ835-935-AMZ111-154-330-350-352-354-370-450-454-472-090300-
...C-MAN AND BUOY OBSERVATIONS...

STATION/POSITION TIME  TEMP    WIND        PRES    WAVE   SWELL
                       AIR SEA DIR/SP/G            HT/PER HT/PER/DIR
                 (UTC) (F)     (DEG/KT/KT) (MB)    (FT/S) (FT/S/D)
BUOY 41004       0150   52 65  310/ 25/ 31 1005.8R   9/ 7   3/16
BUOY 41008       0150   49 55  310/ 17/ 21 1008.2R   5/ 4   2/ 70/11
FOLLY BEACH CMAN 0200   47     280/  9/ 16 1007.4F
CAPERS NEARSHORE 0108   48     320/ 14/ 17 1007.4R
FRIPP NEARSHORE  0100   50     290/ 19/ 25 1007.4S


STATION/POSITION TIME  TEMP    WIND        PRES    WAVE   SWELL
                       AIR SEA DIR/SP/G            HT/PER HT/PER/DIR
                 (UTC) (F)     (DEG/KT/KT) (MB)    (FT/S) (FT/S/D)
5E ST. MARYS GA  0121      55                N/A     4/17   2/100/17
FRYING PAN BUOY  0200   54 63  300/ 27/ 35 1005.8S
BUOY 41025       0150   56 74  310/ 14/ 17 1004.9F  11/14  11/ 80/14
CAPE LOOKOUT NC  NOT AVBL
BUOY 41002       0150   64 69  250/ 23/ 27   N/A    12/14   8/350/14
BUOY 41010       0120   68 72              1011.0F
ST AUGUSTINE FL  0200   58 58  220/  9/ 14 1009.5F


$$



USA.gov is the U.S. government's official web portal to all federal, state and local government web resources and services.